FENGYUN 1C DEB, 31357

Orbit data source: Space-Track

FENGYUN 1C DEB, 31357 is space debris in SSO originally from a launch on Mon, 10 May 1999 UTC launched from the Taiyaun Space Center, China (TSC). Fengyun 1C debris stems from the Chinese weather satellite Fengyun-1C, which was intentionally destroyed by a Chinese anti-satellite missile in 2007. This event dramatically increased the amount of space debris, with thousands of trackable fragments posing hazards to satellites and human spaceflight. The Fengyun 1C debris cloud has become a focal point in discussions about space sustainability and the need for international regulations to prevent the creation of new debris.

Loading next visibility...
Identifier
31357, 1999-025BRM
Orbit
SSO
Country
Flag of CNCN / PRC
Related business
Manufacturer
Unknown
Mission
Spacecraft
Bus & Motor
Unknown
Mass
Unknown
Launch date (UTC)
1999-05-10 (27 years ago)
Launch vehicle
Unknown
Launch site
Taiyaun Space Center, China (TSC)
Object type
Payload
Rocket body
Debris
Shape & HBR
Unknown shape, 0.1 m
Radar Cross Section
Medium (>0.1 m² and <1 m²)

Expand to show TLE details & history
Last TLE update: 1 day ago

TLE from 1 day ago
0 FENGYUN 1C DEB
1 31357U 99025BRM 26206.03332653  .00000019  00000-0  29426-4 0  9992
2 31357  98.5866 235.1790 0050020   6.6914  23.4066 14.18555669998842
Epoch: 2026-07-25T00:47Z
TLE epoch observation values (Epoch: 2026-07-25T00:47:59.412Z)
Latitude
30.00412°
Longitude
-84.54542°
Altitude
800.928 km
Speed
7.473 km/s
True Right ascension
15h 20m 48s
True Declination
29° 51' 23"
Sunlit
Object was in daylight at epoch
Visualization orbit readout
Latitude
Unknown
Longitude
Unknown
Altitude
Unknown
Speed
Unknown
Apparent Right ascension
Unknown
Apparent Declination
Unknown
Sunlit
N/A
Visualization observer readout
Local Sidereal Time
23:21:08
Azimuth
Unknown
Elevation
Unknown
Doppler factor
Unknown
Orbital elements
Apogee altitude
863.438 km
Perigee altitude
791.354 km
Semi-major axis
7,205.533 km
Eccentricity
0.005
Inclination
98.5866°
RAAN
235.179°
Arg. of periapsis
6.6914°
True anomaly
23.63561°
Mean anomaly
23.4066°
Eccentric anomaly
23.52098°
Mean motion
3.54849 °/min
Orbital period
101.45 mins
BSTAR
0.000029426
Loading maneuver chart data...
Computing Atmospheric mass density...
Loading historical data...
Loading historical data...
Loading historical data...
Loading historical data...
Loading historical data...
Loading historical data...
Loading historical data...

Documentation

Showing up to 5 results
|